Printer-friendly version

IAU Minor Planet Center

Minor Planet Center

MPEC 2008-A02 : 2007 TZ417

The following Minor Planet Electronic Circular may be linked-to from your own Web pages, but must not otherwise be redistributed electronically.


Read MPEC 2008-A01 Read MPEC 2008-A03


M.P.E.C. 2008-A02                                Issued 2008 Jan. 1, 15:31 UT

     The Minor Planet Electronic Circulars contain information on unusual
         minor planets and routine data on comets.  They are published
   on behalf of Commission 20 of the International Astronomical Union by the
          Minor Planet Center, Smithsonian Astrophysical Observatory,
                          Cambridge, MA 02138, U.S.A.

             Prepared using the Tamkin Foundation Computer Network

                              MPC@CFA.HARVARD.EDU
          URL http://www.cfa.harvard.edu/iau/mpc.html  ISSN 1523-6714

                                  2007 TZ417

Observations:
     K07Tf7Z  C2006 09 25.33367 02 06 44.48 -04 53 52.2          22.6 I EA002807
     K07Tf7Z  C2006 10 17.28065 02 05 03.77 -05 04 14.6          23.0 R EA002807
     K07Tf7Z* C2007 10 04.30992 02 10 57.22 -04 05 00.2          22.5 I EA002807
     K07Tf7Z  C2007 10 08.26344 02 10 39.10 -04 06 53.0          23.2 R EA002807
     K07Tf7Z  C2007 10 08.29975 02 10 38.92 -04 06 54.0          22.8 I EA002807
     K07Tf7Z  C2007 10 10.33195 02 10 29.38 -04 07 50.4          22.9 R EA002807
     K07Tf7Z  C2007 10 12.28312 02 10 20.07 -04 08 44.0          22.9 R EA002807
     K07Tf7Z  C2007 10 14.26041 02 10 10.57 -04 09 36.0          22.8 R EA002807
     K07Tf7Z  C2007 11 05.25304 02 08 21.09 -04 17 34.9          23.1 R EA002807
     K07Tf7Z  C2007 11 05.27699 02 08 20.99 -04 17 35.3          22.5 I EA002807
     K07Tf7Z  C2007 11 11.08585 02 07 52.48 -04 19 01.3          23.1 R EA002807
     K07Tf7Z  C2007 11 13.07951 02 07 42.86 -04 19 26.2          23.1 R EA002807
     K07Tf7Z  C2007 11 15.07854 02 07 33.34 -04 19 48.8          23.2 R EA002807
     K07Tf7Z  C2007 11 15.11389 02 07 33.17 -04 19 49.4          22.9 I EA002807
     K07Tf7Z  C2007 11 17.07493 02 07 23.98 -04 20 09.0          23.1 R EA002807
     K07Tf7Z  C2007 11 17.17134 02 07 23.51 -04 20 09.9          22.8 I EA002807

Observer details:
807 Cerro Tololo.  Observer ESSENCE Collaboration.  Measurers A. C. Becker,
    A. Rest, W. M. Wood-Vasey.  4-m Blanco telescope + CCD.

Orbital elements:
2007 TZ417
Epoch 2007 Oct. 27.0 TT = JDT 2454400.5                 MPC
M 297.77188              (2000.0)            P               Q
n   0.00367818     Peri.   31.34963     -0.20133996     -0.91018074
a  41.5636931      Node    72.44725     +0.80166157     -0.36546795
e   0.1386014      Incl.   22.31277     +0.56285073     +0.19494664
P 268              H    7.5           G   0.15           U   3
Residuals in seconds of arc
060925 807  0.0   0.1-    071012 807  0.3-  0.4-    071115 807  0.0   0.1+
061017 807  0.0   0.1+    071014 807  0.1+  0.1+    071115 807  0.0   0.1-
071004 807  0.1+  0.1+    071105 807  0.2-  0.1-    071117 807  0.1+  0.0
071008 807  0.1+  0.1+    071105 807  0.1+  0.1-    071117 807  0.1-  0.0
071008 807  0.1-  0.1+    071111 807  0.2+  0.0
071010 807  0.0   0.1+    071113 807  0.0   0.1+

Ephemeris:
2007 TZ417               a,e,i = 41.56, 0.14, 22                 q = 35.803
Date    TT    R. A. (2000) Decl.     Delta      r     Elong.  Phase     V
2007 12 26    02 05.10   -04 17.7   39.148   39.541   112.9     1.3    23.6
2008 01 05    02 04.83   -04 14.3   39.303   39.537   103.1     1.4    23.6
2008 01 15    02 04.72   -04 09.8   39.465   39.534    93.3     1.4    23.7
2008 01 25    02 04.78   -04 04.4   39.628   39.530    83.6     1.4    23.7
2008 02 04    02 05.00   -03 58.2   39.789   39.526    73.9     1.4    23.7
2008 02 14    02 05.37   -03 51.4   39.941   39.523    64.3     1.3    23.7
2008 02 24    02 05.90   -03 44.0   40.080   39.519    54.9     1.2    23.7
2008 03 05    02 06.57   -03 36.4   40.203   39.516    45.6     1.0    23.7
2008 03 15    02 07.35   -03 28.7   40.305   39.512    36.7     0.9    23.7

Brian G. Marsden             (C) Copyright 2008 MPC           M.P.E.C. 2008-A02

Read MPEC 2008-A01 Read MPEC 2008-A03


Our Web policy. Index to the CBAT/MPC/ICQ pages.


Valid HTML 4.01!